Brisbane, Australia

5:04 PM AEST on December 10, 2016 (GMT +1000)
Brisbane

Weather History for 94578 - February, 2014

Change the Weather History Date:

Tuesday, February 11, 2014

  Actual Average Record
Temperature  
Mean Temperature 75 °F -  
Max Temperature 82 °F 84 °F - ()
Min Temperature 68 °F 69 °F - ()
Cooling Degree Days 10    
Growing Degree Days 25 (Base 50)    
Moisture  
Dew Point 61 °F    
Average Humidity 60    
Maximum Humidity 78    
Minimum Humidity 39    
Precipitation  
Precipitation 0.00 in 0.19 in - ()
Sea Level Pressure  
Sea Level Pressure 29.97 in    
Wind  
Wind Speed 6 mph ()    
Max Wind Speed 14 mph    
Max Gust Speed -    
Visibility 8.0 miles    
Events      
T = Trace of Precipitation, MM = Missing Value Source: Averaged Metar Reports

Daily Weather History Graph

Daily Weather History Graph

Search for Another Location

Airport or City:

Trip Planner

Search our weather history database for the weather conditions in past years. The results will help you decide how hot, cold, wet, or windy it might be!

Date:

Astronomy

Feb. 11, 2014 Rise Set
Actual Time 5:27 AM AEST 6:35 PM AEST
Civil Twilight 5:03 AM AEST 6:59 PM AEST
Nautical Twilight 4:34 AM AEST 7:28 PM AEST
Astronomical Twilight 4:04 AM AEST 7:58 PM AEST
Moon 3:50 PM AEST (2/11) 2:03 AM AEST (2/11)
Length of Visible Light 13h 56m
Length of Day
13h 07m
Waxing Gibbous, 87% of the Moon is Illuminated
Feb 11
Waxing Gibbous
Feb 15
Full
Feb 23
Last Quarter
Mar 1
New
Mar 8
First Quarter

Hourly Weather History & Observations

Time (AEST) Temp. Heat Index Dew Point Humidity Pressure Visibility Wind Dir Wind Speed Gust Speed Precip Events Conditions
12:00 AM 73 °F - 62 °F 60% 29.98 in 19 mi SSE 4.6 mph - -   Partly Cloudy
12:00 AM 73.4 °F - 62.6 °F 69% 29.98 in 6.2 mi SSE 4.6 mph - N/A   Scattered Clouds
12:30 AM 73.4 °F - 62.6 °F 69% 29.95 in 6.2 mi SSE 4.6 mph - N/A   Partly Cloudy
1:00 AM 72 °F - 62 °F 64% 29.97 in - South 3.5 mph - -  
1:00 AM 71.6 °F - 62.6 °F 73% 29.95 in - South 3.5 mph - N/A   Clear
1:30 AM 73.4 °F - 62.6 °F 69% 29.95 in 6.2 mi SSE 1.2 mph - N/A   Mostly Cloudy
2:00 AM 73.4 °F - 62.6 °F 69% 29.95 in 6.2 mi SSE 2.3 mph - N/A   Mostly Cloudy
2:30 AM 73.4 °F - 62.6 °F 69% 29.95 in 6.2 mi SE 4.6 mph - N/A   Mostly Cloudy
3:00 AM 72 °F - 63 °F 66% 29.96 in 19 mi ESE 4.6 mph - -   Partly Cloudy
3:00 AM 71.6 °F - 62.6 °F 73% 29.95 in 6.2 mi ESE 4.6 mph - N/A   Mostly Cloudy
3:30 AM 71.6 °F - 62.6 °F 73% 29.95 in 6.2 mi East 6.9 mph - N/A   Mostly Cloudy
4:00 AM 71 °F - 63 °F 70% 29.96 in - ESE 5.8 mph - -  
4:00 AM 71.6 °F - 62.6 °F 73% 29.95 in 6.2 mi ESE 5.8 mph - N/A   Mostly Cloudy
4:30 AM 69.8 °F - 62.6 °F 78% 29.95 in - South 4.6 mph - N/A   Clear
5:00 AM 69.8 °F - 62.6 °F 78% 29.98 in 6.2 mi South 5.8 mph - N/A   Scattered Clouds
5:30 AM 69.8 °F - 62.6 °F 78% 29.98 in 6.2 mi SSW 8.1 mph - N/A   Mostly Cloudy
6:00 AM 69 °F - 63 °F 75% 30.00 in 19 mi SSW 8.1 mph - -   Partly Cloudy
6:00 AM 69.8 °F - 62.6 °F 78% 29.98 in 6.2 mi SSW 8.1 mph - N/A   Mostly Cloudy
6:30 AM 69.8 °F - 62.6 °F 78% 29.98 in 6.2 mi SSW 8.1 mph - N/A   Scattered Clouds
7:00 AM 73 °F - 63 °F 63% 30.01 in - SSW 6.9 mph - -  
7:00 AM 73.4 °F - 62.6 °F 69% 30.01 in 6.2 mi SSW 6.9 mph - N/A   Partly Cloudy
7:30 AM 75.2 °F - 62.6 °F 65% 30.01 in 6.2 mi South 5.8 mph - N/A   Scattered Clouds
8:00 AM 77.0 °F - 60.8 °F 57% 30.01 in 6.2 mi SE 5.8 mph - N/A   Scattered Clouds
8:30 AM 78.8 °F - 59.0 °F 51% 30.01 in 6.2 mi SE 6.9 mph - N/A   Scattered Clouds
9:00 AM 80 °F - 60 °F 39% 30.02 in 19 mi ESE 8.1 mph - -   Partly Cloudy
9:00 AM 78.8 °F - 59.0 °F 51% 30.01 in 6.2 mi ESE 8.1 mph - N/A   Mostly Cloudy
9:30 AM 78.8 °F - 60.8 °F 54% 30.01 in 6.2 mi ESE 6.9 mph - N/A   Mostly Cloudy
10:00 AM 80 °F - 61 °F 42% 30.03 in - SE 8.1 mph - -  
10:00 AM 80.6 °F 81.5 °F 60.8 °F 51% 30.01 in 6.2 mi SE 8.1 mph - N/A   Mostly Cloudy
10:30 AM 80.6 °F 81.8 °F 62.6 °F 54% 30.01 in 6.2 mi ENE 10.4 mph - N/A   Mostly Cloudy
11:00 AM 80.6 °F 81.5 °F 60.8 °F 51% 30.01 in 6.2 mi ENE 10.4 mph - N/A   Mostly Cloudy
11:30 AM 80.6 °F 81.8 °F 62.6 °F 54% 30.01 in 6.2 mi NE 12.7 mph - N/A   Mostly Cloudy
12:00 PM 82 °F - 61 °F 39% 30.00 in 19 mi ENE 13.8 mph - -   Partly Cloudy
12:00 PM 82.4 °F 82.9 °F 60.8 °F 48% 29.98 in 6.2 mi ENE 13.8 mph - N/A   Mostly Cloudy
12:30 PM 80.6 °F 81.1 °F 59.0 °F 48% 29.98 in 6.2 mi ENE 11.5 mph - N/A   Mostly Cloudy
1:00 PM 81 °F - 60 °F 39% 29.97 in - ENE 12.7 mph - -  
1:00 PM 80.6 °F 81.5 °F 60.8 °F 51% 29.95 in 6.2 mi ENE 12.7 mph - N/A   Mostly Cloudy
1:30 PM 80.6 °F 81.5 °F 60.8 °F 51% 29.95 in 6.2 mi ENE 12.7 mph - N/A   Mostly Cloudy
2:00 PM 80.6 °F 81.5 °F 60.8 °F 51% 29.95 in 6.2 mi ENE 12.7 mph - N/A   Mostly Cloudy
2:30 PM 80.6 °F 81.5 °F 60.8 °F 51% 29.92 in 6.2 mi ENE 13.8 mph - N/A   Mostly Cloudy
3:00 PM 80 °F - 60 °F 41% 29.94 in 19 mi NE 12.7 mph - -   Partly Cloudy
3:00 PM 80.6 °F 81.5 °F 60.8 °F 51% 29.92 in 6.2 mi NE 12.7 mph - N/A   Mostly Cloudy
3:30 PM 80.6 °F 81.5 °F 60.8 °F 51% 29.92 in 6.2 mi ENE 13.8 mph - N/A   Mostly Cloudy
4:00 PM 79 °F - 60 °F 42% 29.93 in - ENE 12.7 mph - -  
4:00 PM 78.8 °F - 60.8 °F 54% 29.92 in 6.2 mi ENE 12.7 mph - N/A   Mostly Cloudy
4:30 PM 78.8 °F - 60.8 °F 54% 29.92 in 6.2 mi NE 12.7 mph - N/A   Mostly Cloudy
5:00 PM 77.0 °F - 62.6 °F 61% 29.95 in 6.2 mi ENE 10.4 mph - N/A   Mostly Cloudy
5:30 PM 77.0 °F - 60.8 °F 57% 29.95 in 6.2 mi ENE 10.4 mph - N/A   Mostly Cloudy
6:00 PM 76 °F - 61 °F 51% 29.96 in 16 mi ENE 9.2 mph - -   Partly Cloudy
6:00 PM 77.0 °F - 60.8 °F 57% 29.95 in 6.2 mi ENE 9.2 mph - N/A   Scattered Clouds
6:30 PM 75.2 °F - 60.8 °F 61% 29.95 in 6.2 mi ENE 9.2 mph - N/A   Scattered Clouds
7:00 PM 75 °F - 60 °F 49% 29.96 in - NE 8.1 mph - -  
7:00 PM 75.2 °F - 59.0 °F 57% 29.95 in 6.2 mi NE 8.1 mph - N/A   Partly Cloudy
7:30 PM 75.2 °F - 60.8 °F 61% 29.95 in 6.2 mi NE 8.1 mph - N/A   Partly Cloudy
8:00 PM 75.2 °F - 60.8 °F 61% 29.95 in 6.2 mi NE 6.9 mph - N/A   Partly Cloudy
8:30 PM 75.2 °F - 60.8 °F 61% 29.98 in 6.2 mi NE 5.8 mph - N/A   Partly Cloudy
9:00 PM 74 °F - 61 °F 54% 29.98 in 19 mi ENE 5.8 mph - -   Partly Cloudy
9:00 PM 75.2 °F - 60.8 °F 61% 29.98 in 6.2 mi ENE 5.8 mph - N/A   Partly Cloudy
9:30 PM 71.6 °F - 60.8 °F 69% 29.98 in 6.2 mi ENE 5.8 mph - N/A   Partly Cloudy
10:00 PM 73 °F - 61 °F 58% 29.99 in - ENE 5.8 mph - -  
10:00 PM 73.4 °F - 60.8 °F 65% 29.98 in 6.2 mi ENE 5.8 mph - N/A   Partly Cloudy
10:30 PM 73.4 °F - 60.8 °F 65% 29.98 in 6.2 mi ENE 4.6 mph - N/A   Partly Cloudy
11:00 PM 73.4 °F - 60.8 °F 65% 29.95 in 6.2 mi ENE 4.6 mph - N/A   Partly Cloudy
11:30 PM 71.6 °F - 62.6 °F 73% 29.95 in 6.2 mi ENE 5.8 mph - N/A   Partly Cloudy